#timestamp,LO_Frequency,Hit,StdDev 
1503079215.1,286046998.6,N,1.3
1503079235.9,286046998.8,N,1.2
1503079255.7,286046998.2,N,1.2
1503079275.5,286047001.1,N,1.3
1503079295.4,286046999.9,N,1.2
1503079315.2,286046999.9,N,1.2
1503079335.0,286047000.0,N,1.2
1503079335.9,286047000.0,N,1.1
1503079355.8,286047001.0,N,1.1
1503079375.6,286047001.0,N,1.1
1503079395.4,286047000.3,N,1.1
1503079415.3,286046999.8,N,1.1
1503079435.1,286047002.8,N,1.2
1503079455.8,286047002.3,N,1.3
1503079475.7,286047000.1,N,1.2
1503079495.5,286046999.9,N,1.2
1503079515.3,286047000.2,N,1.2
1503079535.2,286047000.6,N,1.2
1503079555.0,286047000.2,N,1.2
1503079555.9,286047000.2,N,1.2
1503079575.7,286047000.0,N,1.1
1503079595.6,286047000.9,N,1.1
1503079615.4,286047000.5,N,1.1
1503079635.2,286047000.6,N,1.0
1503079655.1,286047001.0,N,1.0
1503079656.0,286047001.0,N,1.0
1503079675.8,286046998.1,N,1.0
1503079695.6,286047000.6,N,1.0
1503079715.5,286047000.8,N,1.0
1503079735.3,286047000.2,N,1.0
1503079755.1,286046999.9,N,0.9
1503079775.9,286047001.0,N,0.9
1503079795.7,286047000.9,N,0.8
1503079815.5,286047000.7,N,0.8
1503079835.4,286047000.8,N,0.8
1503079855.2,286046998.2,N,0.9
1503079875.0,286046998.2,N,1.0
1503079875.9,286046998.2,N,1.1
1503079895.8,286046999.0,N,1.1
1503079915.6,286046999.0,N,1.1
1503079935.4,286047001.1,N,1.1
1503079955.3,286046998.4,N,1.1
1503079975.1,286046999.6,N,1.0
1503079995.8,286046998.0,N,1.0
1503080015.7,286046995.4,Y,0.0
1503080035.5,286046997.4,P,1.3
1503080055.3,286046994.9,P,2.1
1503080075.2,286046994.9,N,2.1
1503080095.0,286046995.1,N,2.0
1503080095.9,286046995.1,N,1.9
1503080115.7,286046995.9,N,1.7
1503080135.6,286046996.2,N,1.6
1503080155.4,286046998.0,N,1.6
1503080175.2,286046995.5,N,1.6
1503080195.1,286046995.3,N,1.5
1503080196.0,286046995.3,Y,0.0
1503080215.8,286046998.4,P,1.1
1503080235.7,286046998.3,N,1.0
1503080255.5,286046998.4,N,0.9
1503080275.3,286046999.0,N,1.0
1503080295.2,286046998.5,N,0.9
1503080315.9,286046999.4,N,0.9
1503080335.7,286046999.1,N,0.9
1503080355.6,286046999.4,N,0.9
1503080375.4,286046996.8,Y,0.0
1503080395.2,286046998.5,P,0.0
1503080415.1,286046999.1,P,0.3
1503080416.0,286046999.1,P,0.3
1503080435.8,286046999.5,N,0.4
1503080455.6,286046996.7,Y,0.0
1503080475.5,286047000.7,P,0.9
1503080495.3,286046998.2,N,1.0
1503080515.1,286046998.6,N,1.0
1503080535.9,286046998.8,N,0.9
1503080555.7,286046999.2,N,0.8
1503080575.5,286046998.2,N,0.8
1503080595.4,286046998.2,N,0.8
1503080615.2,286046996.6,Y,0.0
1503080635.0,286046998.7,P,0.1
1503080635.9,286046998.7,P,0.1
1503080655.8,286046999.1,P,0.2
1503080675.6,286046998.8,Y,0.0
1503080695.4,286047000.9,P,1.0
1503080715.3,286046999.7,N,0.8
1503080735.1,286047000.4,N,0.8
1503080755.8,286046998.7,N,0.9
1503080775.7,286046998.3,N,0.9
1503080795.5,286046998.8,N,0.9
1503080815.3,286047000.6,N,0.9
1503080835.2,286047000.6,N,0.9
1503080855.0,286046998.6,N,1.0
1503080855.9,286046998.6,N,0.9
1503080875.7,286046998.2,N,1.0
1503080895.6,286047000.9,N,1.0
1503080915.4,286046998.8,N,1.0
1503080935.3,286046996.8,Y,0.0
1503080955.1,286046996.6,P,1.4
1503080956.0,286046996.6,N,1.3
1503080975.8,286046996.9,N,1.2
1503080995.7,286046997.0,N,1.1
1503081015.5,286046999.5,N,1.3
1503081035.3,286046999.3,N,1.3
1503081055.2,286047001.1,N,1.6
1503081075.9,286046996.5,N,1.6
1503081095.7,286046999.4,N,1.6
1503081115.6,286046999.6,N,1.6
1503081135.4,286046996.5,N,1.6
1503081155.2,286046996.7,N,1.6
1503081175.1,286046999.2,N,1.5
1503081176.0,286046999.2,N,1.5
1503081195.8,286046996.8,N,1.5
1503081215.6,286046997.1,N,1.5
1503081235.5,286046997.1,N,1.5
1503081255.3,286046997.1,N,1.4
1503081275.1,286046999.5,N,1.4
1503081295.9,286046999.5,N,1.4
1503081315.7,286046996.6,N,1.4
1503081335.5,286046996.9,N,1.4
1503081355.4,286046999.5,N,1.4
1503081375.2,286046999.6,N,1.4
1503081395.0,286046998.3,N,1.4
1503081395.9,286046998.3,N,1.4
1503081415.8,286046999.3,N,1.4
1503081435.6,286046998.8,N,1.4
1503081455.4,286046998.3,N,1.3
1503081475.3,286046998.9,N,1.3
1503081495.1,286046998.4,N,1.3
1503081496.0,286046998.4,N,1.2
1503081515.8,286046998.4,N,1.2
1503081535.7,286046998.6,N,1.2
1503081555.5,286046999.0,N,1.2
1503081575.3,286046998.2,N,1.2
1503081595.2,286046998.7,N,1.1
1503081615.9,286046998.4,N,1.0
1503081635.7,286046998.2,N,1.0
1503081655.6,286046998.7,N,1.0
1503081675.4,286047001.2,N,1.0
1503081695.2,286046998.1,N,1.0
1503081715.1,286047000.7,N,1.1
1503081716.0,286047000.7,N,1.1
1503081735.8,286046998.2,N,1.1
1503081755.6,286047001.1,N,1.1
1503081775.5,286047000.3,N,1.1
1503081795.3,286046999.9,N,1.1
1503081815.1,286047000.5,N,1.1
1503081835.9,286046999.9,N,1.1
1503081855.7,286047000.3,N,1.0
1503081875.5,286046999.8,N,1.0
1503081895.4,286046999.9,N,1.0
1503081915.2,286047000.1,N,1.0
1503081935.0,286047002.3,N,1.1
1503081935.9,286047002.3,N,1.2
1503081955.8,286047002.4,N,1.3
1503081975.6,286047002.1,N,1.4
1503081995.4,286047001.6,N,1.4
1503082015.3,286047002.0,N,1.4
1503082035.1,286047001.5,N,1.4
1503082055.8,286047004.4,Y,0.0
1503082075.7,286047004.4,P,2.2
1503082095.5,286047004.3,N,2.0
1503082115.3,286047004.0,N,1.8
1503082135.2,286047003.8,N,1.6
1503082155.9,286047003.8,N,1.5
1503082175.7,286047003.8,N,1.4
1503082195.6,286047003.6,N,1.3
1503082215.4,286047003.8,N,1.2
1503082235.2,286047003.5,N,1.2
1503082255.1,286047003.4,N,1.1
1503082256.0,286047003.4,N,1.1
1503082275.8,286047003.4,Y,0.0
1503082295.6,286047002.6,P,0.4
1503082315.5,286047002.4,P,0.5
1503082335.3,286047002.4,P,0.4
1503082355.2,286047002.8,Y,0.0
1503082375.9,286046998.7,P,2.0
1503082395.7,286046998.7,N,1.9
1503082415.6,286046998.8,N,1.7
1503082435.4,286046998.5,N,1.6
1503082455.2,286046998.3,N,1.5
1503082475.1,286047001.2,N,1.6
1503082476.0,286047001.2,N,1.6
1503082495.8,286046998.2,N,1.6
1503082515.6,286047000.7,N,1.5
1503082535.5,286047000.7,N,1.5
1503082555.3,286046999.9,N,1.4
1503082575.1,286046999.9,N,1.4
1503082595.9,286047000.6,N,1.3
1503082615.7,286047000.1,N,1.3
1503082635.5,286046999.9,N,1.2
1503082655.4,286047000.3,N,1.2
1503082675.2,286047000.9,N,1.2
1503082695.0,286046999.9,N,1.2
1503082695.9,286046999.9,N,1.1
1503082715.8,286047000.4,N,1.1
1503082735.6,286046999.8,N,1.1
1503082755.4,286046999.9,N,1.1
1503082775.3,286046999.7,N,1.0
1503082795.1,286047002.4,N,1.1
